Regional Weather Roundup
Issued by NWS

Home | Current Version | Previous Version | Graphics & Text | Print | Product List | Glossary On
Versions: 1 2 3 4 5 6 7 8 9 10 11 12 13 14 15 16 17 18 19 20 21 22 23 24 25 26 27 28 29 30 31 32 33 34 35 36 37 38 39 40 41 42 43 44 45 46 47 48 49 50
000
ASUS45 KBOU 050207
RWRCO

WEATHER ROUNDUP FOR COLORADO
NATIONAL WEATHER SERVICE DENVER/BOULDER CO
800 PM MDT TUE AUG 04 2015

NOTE: "FAIR" INDICATES FEW OR NO CLOUDS BELOW 12000 FEET WITH NO
SIGNIFICANT WEATHER AND/OR OBSTRUCTIONS TO VISIBILITY.

COZ001>005-013-030-031-050300-
...NORTHWEST COLORADO...

CITY           SKY/WX    TMP DP  RH WIND       PRES   REMARKS
CRAIG          NOT AVBL
HAYDEN         PTCLDY    73  37  27 W3        30.21R
MEEKER         CLEAR     78  36  21 W5        30.19S
MOUNT WERNER   NOT AVBL
STEAMBOAT SPGS   N/A    N/A N/A N/A MISG        N/A
WALDEN         PTCLDY    64  32  29 W7        30.33R
$$

COZ006>008-011-050300-
...WEST CENTRAL VALLEYS...

CITY           SKY/WX    TMP DP  RH WIND       PRES   REMARKS
GRAND JUNCTION CLEAR     86  38  18 W6        30.05R
MONTROSE       PTCLDY    83  44  25 NE5       30.16R
EAGLE          MOCLDY    79  37  22 S9        30.22S
RIFLE          PTCLDY    83  44  25 SW5       30.11S
DELTA          PTCLDY    87  40  19 CALM      30.09S
NUCLA          PTCLDY    81  41  24 S6        30.20S
$$

COZ017>023-064>068-050300-
...SOUTHWEST COLORADO...

CITY           SKY/WX    TMP DP  RH WIND       PRES   REMARKS
DURANGO        CLEAR     78  39  24 NW9       30.22R
CORTEZ         CLEAR     79  42  26 N6        30.17R
PAGOSA SPRINGS CLEAR     76  33  20 W6        30.30R
TELLURIDE      CLEAR     67  38  35 CALM      30.47R
WOLF CREEK PAS NOT AVBL
$$

COZ009-010-012-014-032>034-037-058>063-050300-
...CENTRAL COLORADO...

CITY           SKY/WX    TMP DP  RH WIND       PRES   REMARKS
ASPEN          CLOUDY    65  47  52 SW5       30.32R
BUENA VISTA    PTCLDY    67  38  34 NW6       30.33R
COPPER MTN     PTCLDY    55  32  41 W16       30.65R
BERTHOUD PASS  FAIR      45  34  65 NW23      30.67R
COTTONWOOD PAS PTCLDY    64  30  27 W14G26    30.48R
GUNNISON       CLEAR     73  36  25 NW7       30.34R
KREMMLING      CLEAR     73  28  19 NW8       30.29S
LEADVILLE      PTCLDY    60  34  37 W10       30.48R
MONARCH PASS   CLEAR     54  32  43 NW13G23   30.76R
SALIDA         MOCLDY    75  36  24 W6        30.35R
SUNLIGHT       MOCLDY    57  43  58 CALM      30.58S
WILKERSON PASS NOT AVBL
$$

COZ069>075-050300-
...SAN LUIS VALLEY/SANGRE DE CRISTO MOUNTAINS...

CITY           SKY/WX    TMP DP  RH WIND       PRES   REMARKS
ALAMOSA        MOCLDY    74  37  26 N9        30.27R
LA VETA PASS   MOCLDY    61  32  33 MISG      30.50S
SAGUACHE       CLEAR     72  37  28 NW7       30.33R
$$

COZ035-036-038>040-050300-
...NORTHERN COLORADO FRONT RANGE...

CITY           SKY/WX    TMP DP  RH WIND       PRES   REMARKS
DENVER INTL AP PTCLDY    79  44  28 N6        30.09R
DMNS CITY PARK   N/A     82  31  15 NW9       30.08R
AURORA         PTCLDY    76  47  35 E5        30.12R
FRONT RANGE AP PTCLDY    77  45  31 SE9       30.11R
ERIE MUNI ARPT CLEAR     80  38  22 W3        30.07R
BOULDER MUN AP CLEAR     81  36  19 W5        30.08R
CENTENNIAL     PTCLDY    81  34  18 N8        30.13R
BROOMFIELD     PTCLDY    81  32  17 W9        30.11R
FORT COLLINS   CLEAR     82  41  23 W8        30.05R
LONGMONT       CLEAR     82  34  18 NW8       30.08R
$$

COZ041-046-047-076>085-087-088-050300-
...PIKES PEAK/PALMER DIVIDE AND SOUTHERN FOOTHILLS...

CITY           SKY/WX    TMP DP  RH WIND       PRES   REMARKS
COLO. SPRINGS  MOCLDY    73  53  49 NE13      30.17R
A. F. ACADEMY  MOCLDY    73  46  38 NE12      30.18R
ELLICOTT       MOCLDY   N/A N/A N/A E14       30.16R
FALCON         MOCLDY    66  55  66 NE6       30.23R
FORT CARSON    PTCLDY    77  49  36 NE15      30.12R
LIMON          CLEAR     70  55  59 SE6       30.11R
MONUMENT HILL  PTCLDY    64  46  52 SE6       30.24R
TRINIDAD       PTCLDY    79  43  27 NW7       30.09R
$$

COZ042>045-048>051-090-091-050300-
...NORTHEAST COLORADO...

CITY           SKY/WX    TMP DP  RH WIND       PRES   REMARKS
GREELEY ARPT   PTCLDY    75  54  46 E10G16    30.06R
AKRON          PTCLDY    71  57  61 SE8       30.06R
BURLINGTON     CLEAR     73  58  59 E9        30.04R
WRAY           MOCLDY    74  59  59 CALM      30.01R
STERLING       PTCLDY    73  57  56 E5        30.01R
HOLYOKE        MOCLDY    72  64  78 CALM      30.01R
FORT MORGAN    PTCLDY    70  52  51 E5        30.06R
$$

COZ086-089-092>099-050300-
...SOUTHEAST COLORADO...

CITY           SKY/WX    TMP DP  RH WIND       PRES   REMARKS
PUEBLO         CLEAR     87  47  24 NE10      30.00R
LA JUNTA       CLEAR     84  57  39 E7        29.96R
LAMAR          CLEAR     84  55  36 E12       29.93R
SPRINGFIELD      N/A     80  64  58 SE10      29.99R
$$



USA.gov is the U.S. government's official web portal to all federal, state and local government web resources and services.